DW3901 Weather Reports


time (UTC)temp
C
wind
direction
speed
KPH
gust
KPH
rain 1hr
cm
rain 24hr
cm
rain mn
cm
humidity
%
barometer
mb
20260505183102 27 203 17.7 25.7 0.00 0.00 0.00 67 1001.4
20260505181557 27 182 17.7 32.2 0.00 0.00 0.00 67 1001.6
20260505180107 26 200 19.3 32.2 0.00 0.00 0.00 68 1001.4
20260505174603 26 213 22.5 35.4 0.00 0.00 0.00 70 1001.4
20260505173053 26 191 19.3 33.8 0.00 0.00 0.00 69 1001.4
20260505171550 26 174 16.1 33.8 0.00 0.00 0.00 71 1001.6
20260505170049 26 161 19.3 30.6 0.00 0.00 0.00 71 1001.5
20260505164550 25 190 16.1 40.2 0.00 0.00 0.00 72 1001.6
20260505163052 25 186 19.3 32.2 0.00 0.00 0.00 72 1002.0
20260505161549 25 204 19.3 37.0 0.00 0.00 0.00 72 1001.4
20260505153004 24 203 14.5 25.7 0.00 0.00 0.00 76 1001.2
20260505151603 24 186 17.7 30.6 0.00 0.00 0.00 78 1001.4
20260505124545 21 179 14.5 24.1 0.00 0.00 0.00 83 1001.0
20260505123041 21 180 17.7 27.4 0.00 0.00 0.00 84 1000.9
20260505121540 21 178 14.5 27.4 0.00 0.00 0.00 84 1000.9
20260505120042 21 167 16.1 24.1 0.00 0.00 0.00 85 1000.6
20260505114539 21 175 14.5 25.7 0.00 0.00 0.00 85 1000.5
20260505113038 21 156 12.9 22.5 0.00 0.00 0.00 84 1000.6
20260505111538 21 167 12.9 24.1 0.00 0.00 0.00 83 1000.4
20260505101536 21 194 14.5 29.0 0.00 0.00 0.00 83 1000.6
20260505100032 21 176 19.3 30.6 0.00 0.00 0.00 83 1000.4
20260505094531 21 156 16.1 30.6 0.00 0.00 0.00 84 1000.6
20260505093035 21 179 16.1 27.4 0.00 0.00 0.00 84 1000.8
20260505091528 21 187 16.1 32.2 0.00 0.00 0.00 84 1000.9
20260505090029 21 167 17.7 27.4 0.00 0.00 0.00 84 1001.0
20260505084529 21 174 16.1 30.6 0.00 0.00 0.00 83 1000.9
20260505083027 21 171 19.3 27.4 0.00 0.00 0.00 83 1000.9
20260505081523 21 187 19.3 29.0 0.00 0.00 0.00 82 1000.9
20260505080020 21 193 19.3 33.8 0.00 0.00 0.00 81 1001.1
20260505074518 21 190 16.1 27.4 0.00 0.00 0.00 81 1001.3
20260505073014 21 182 16.1 27.4 0.00 0.00 0.00 80 1001.6
20260505071513 21 184 19.3 35.4 0.00 0.00 0.00 79 1001.6
20260505070011 21 159 16.1 30.6 0.00 0.00 0.00 79 1001.9
20260505064508 22 146 17.7 32.2 0.00 0.00 0.00 78 1002.0
20260505063007 21 188 16.1 30.6 0.00 0.00 0.00 78 1002.1
20260505061509 22 167 20.9 33.8 0.00 0.00 0.00 77 1002.2
20260505060004 21 151 20.9 27.4 0.00 0.00 0.00 77 1002.1
20260505054501 21 153 16.1 27.4 0.00 0.00 0.00 77 1002.4
20260505053059 22 159 17.7 32.2 0.00 0.00 0.00 76 1002.5
20260505051612 22 165 16.1 30.6 0.00 0.00 0.00 75 1002.8
20260505041551 22 147 24.1 40.2 0.00 0.00 0.00 73 1002.8
20260505040048 22 149 17.7 33.8 0.00 0.00 0.00 73 1002.9
20260505034547 22 166 17.7 29.0 0.00 0.00 0.00 72 1002.9
20260505033047 22 156 17.7 29.0 0.00 0.00 0.00 71 1003.1
20260505031553 22 166 19.3 32.2 0.00 0.00 0.00 71 1003.0
20260505030046 23 157 20.9 30.6 0.00 0.00 0.00 71 1003.0
20260505024551 23 160 17.7 32.2 0.00 0.00 0.00 70 1002.9
20260505023045 23 148 16.1 30.6 0.00 0.00 0.00 69 1002.9
20260505021549 23 163 19.3 32.2 0.00 0.00 0.00 68 1002.7
20260505020044 23 175 17.7 30.6 0.00 0.00 0.00 68 1002.7
20260505014544 23 161 19.3 30.6 0.00 0.00 0.00 67 1002.8
20260505013043 23 148 20.9 35.4 0.00 0.00 0.00 66 1002.7
20260505011542 23 167 19.3 30.6 0.00 0.00 0.00 66 1002.8
20260505010053 24 157 19.3 30.6 0.00 0.00 0.00 65 1002.9
20260505004540 24 194 22.5 38.6 0.00 0.00 0.00 64 1002.8
20260505003040 25 171 24.1 38.6 0.00 0.00 0.00 63 1002.9
20260505001539 25 159 22.5 37.0 0.00 0.00 0.00 62 1003.0
20260505000045 25 141 22.5 33.8 0.00 0.00 0.00 62 1002.8
20260504234537 25 146 24.1 35.4 0.00 0.00 0.00 62 1003.0
20260504233043 25 142 22.5 33.8 0.00 0.00 0.00 60 1003.2
20260504231539 25 164 24.1 38.6 0.00 0.00 0.00 59 1003.5
20260504230036 26 159 22.5 38.6 0.00 0.00 0.00 59 1003.4
20260504224532 26 151 24.1 40.2 0.00 0.00 0.00 59 1003.7
20260504223032 26 148 29.0 43.5 0.00 0.00 0.00 58 1003.5
20260504221529 26 157 27.4 41.8 0.00 0.00 0.00 58 1003.7
20260504220030 26 149 24.1 40.2 0.00 0.00 0.00 57 1003.8
20260504214526 26 140 24.1 38.6 0.00 0.00 0.00 56 1004.1
20260504213024 26 150 25.7 41.8 0.00 0.00 0.00 56 1004.2
20260504211521 26 153 25.7 38.6 0.00 0.00 0.00 56 1004.5
20260504210019 26 162 27.4 40.2 0.00 0.00 0.00 54 1004.8
20260504204517 26 140 27.4 45.1 0.00 0.00 0.00 54 1005.0
20260504203022 26 166 22.5 38.6 0.00 0.00 0.00 54 1005.5
20260504201513 26 201 27.4 40.2 0.00 0.00 0.00 53 1005.7
20260504200011 26 163 20.9 35.4 0.00 0.00 0.00 53 1006.1
20260504194509 25 143 20.9 37.0 0.00 0.00 0.00 52 1006.3
20260504193014 25 142 22.5 35.4 0.00 0.00 0.00 51 1006.4
20260504191517 25 174 24.1 40.2 0.00 0.00 0.00 50 1006.8
20260504190002 25 172 25.7 37.0 0.00 0.00 0.00 50 1007.0
20260504184600 25 123 27.4 38.6 0.00 0.00 0.00 51 1007.0